Location: Lecco
(45.8566°N, 9.3977°E)
Time: 13:20:30
(UTC+02:00)

Vanguard 2 Rocket - Pass Details

Date: 22 August 2020
Orbit: 554 x 3326 km, 32.9° (Epoch: 24 September)

Event Time Altitude Azimuth Distance (km) Brightness Sun altitude
Rises 19:58:33 0° 250° (WSW) 3,167 10.8 2.5°
Reaches altitude 10° 20:01:44 10° 226° (SW) 2,544 9.7 1.9°
Maximum altitude 20:05:02 15° 192° (SSW) 2,543 9.2 1.4°
Drops below altitude 10° 20:09:13 10° 161° (SSE) 3,376 9.5 0.7°
Sets 20:14:41 0° 141° (SE) 4,988 10.2 -0.2°
